Location: Burleson Alternative School
(32.5290°N, 97.3406°W)
Time: 22:42:55
(UTC+00:00)

JUGNU - Pass Details

Date: 06 December 2024
Orbit: 834 x 861 km, 20.0° (Epoch: 19 January)

Event Time Altitude Azimuth Distance (km) Brightness Sun altitude
Exits shadow 10:47:22 11° 184° (S) 2,334 ? -31.0°
Maximum altitude 10:49:14 13° 164° (SSE) 2,221 ? -30.6°
Drops below altitude 10° 10:51:46 10° 138° (SE) 2,427 ? -30.0°
Sets 10:55:49 0° 111° (ESE) 3,366 ? -29.2°
